Regional Weather Roundup
Issued by NWS

Home | Current Version | Previous Version | Text Only | Print | Product List | Glossary On
Versions: 1 2 3 4 5 6 7 8 9 10 11 12 13 14 15 16 17 18 19 20 21 22 23 24 25 26 27 28 29 30 31 32 33 34 35 36 37 38 39 40 41 42 43 44 45 46 47 48 49 50
000
ASUS43 KOAX 172310
RWRNE

WEATHER ROUNDUP FOR NEBRASKA
NATIONAL WEATHER SERVICE OMAHA NE
600 PM CDT MON MAY 17 2021

NOTES: SATELLITE DATA IS BEING USED TO AUGMENT CLOUD COVER ABOVE
       12000 FEET.
       "FAIR" INDICATES FEW OR NO CLOUDS BELOW 12,000 FEET WITH NO
       SIGNIFICANT WEATHER AND/OR OBSTRUCTIONS TO VISIBILITY.


NEZ001>004-019>022-054>056-180000-
NEBRASKA PANHANDLE

CITY           SKY/WX    TMP DP  RH WIND       PRES   REMARKS
SCOTTSBLUFF    FAIR      69  51  52 SE17G23   29.94F
ALLIANCE       CLOUDY    63  54  72 SE23G29   29.97R
CHADRON        PTSUNNY   69  53  56 E12       29.92F
GORDON         FAIR      66  53  63 SE12      29.98S
KIMBALL        CLOUDY    64  52  65 SE12      29.99S
SIDNEY         CLOUDY    59  54  83 SE16      29.97S
$$

NEZ057>060-069>072-079>082-180000-
SOUTHWEST NEBRASKA

CITY           SKY/WX    TMP DP  RH WIND       PRES   REMARKS
NORTH PLATTE   CLOUDY    61  55  81 E6        29.99F
IMPERIAL       LGT RAIN  57  55  93 E12       29.99S
LEXINGTON      CLOUDY    62  56  79 E7        30.00R
MCCOOK         CLOUDY    63  54  72 E10       29.97F
OGALLALA       CLOUDY    59  57  91 SE9       29.99F
$$

NEZ005>010-023>029-035>040-094-180000-
NORTH CENTRAL NEBRASKA

CITY           SKY/WX    TMP DP  RH WIND       PRES   REMARKS
VALENTINE      CLOUDY    63  53  70 E12       30.01S
AINSWORTH      CLOUDY    61  54  77 SE10      30.02S
BROKEN BOW     CLOUDY    64  55  72 SE7       30.00S
O`NEILL        CLOUDY    63  56  78 E8        30.02S
ORD            CLOUDY    62  56  80 E8        29.99R
$$

NEZ041-046>049-061>064-073>077-083>087-180000-
SOUTH CENTRAL NEBRASKA

CITY           SKY/WX    TMP DP  RH WIND       PRES   REMARKS
GRAND ISLAND   CLOUDY    64  57  78 NE9       29.99S
AURORA         CLOUDY    66  59  77 E10       29.99R
HASTINGS       CLOUDY    66  57  72 NE6       29.98F
HEBRON         CLOUDY    69  60  74 E5        29.96R
HOLDREGE       CLOUDY    64  57  78 E7        29.99S
KEARNEY        CLOUDY    65  57  75 E8        29.99S
YORK           PTSUNNY   64  61  88 NE8       29.98S
$$

NEZ011>018-030>034-042>045-180000-
NORTHEAST NEBRASKA

CITY           SKY/WX    TMP DP  RH WIND       PRES   REMARKS
NORFOLK        CLOUDY    64  57  78 E9        30.00S
ALBION         CLOUDY    62  58  86 E5        30.01R
BLAIR          CLOUDY    66  61  83 NE12      29.98F
COLUMBUS       LGT RAIN  65  61  87 E7        30.00S
FREMONT        CLOUDY    68  61  78 E12       29.99S
TEKAMAH        CLOUDY    68  60  75 E15       29.99F
WAYNE          CLOUDY    64  59  82 E12       30.01S
$$

NEZ050>053-065>068-078-088>093-180000-
SOUTHEAST NEBRASKA

CITY           SKY/WX    TMP DP  RH WIND       PRES   REMARKS
LINCOLN        CLOUDY    69  60  73 E10       29.97S
OMAHA EPPLEY   CLOUDY    68  60  75 E12       29.98S
BEATRICE       CLOUDY    70  60  69 E7        29.95S
FALLS CITY     FAIR      73  62  68 E10       29.93S
NEBRASKA CITY  CLOUDY    68  64  89 NE8       29.96S
PLATTSMOUTH    CLOUDY    68  61  79 NE12      29.98R
$$

NEZ044-045-051>053-067-180000-
OMAHA AREA

CITY           SKY/WX    TMP DP  RH WIND       PRES   REMARKS
OMAHA EPPLEY   CLOUDY    68  60  75 E12       29.98S
BLAIR          CLOUDY    66  61  83 NE12      29.98F
FREMONT        CLOUDY    68  61  78 E12       29.99S
MILLARD        CLOUDY    69  60  74 NE6       29.98S
OFFUTT AFB     LGT RAIN  68  61  77 CALM      29.98R
PLATTSMOUTH    CLOUDY    68  61  79 NE12      29.98R
WAHOO          CLOUDY    67  64  87 E14G21    29.98R
$$



USA.gov is the U.S. government's official web portal to all federal, state and local government web resources and services.